Regional Weather Roundup
Issued by NWS

Home | Current Version | Previous Version | Text Only | Print | Product List | Glossary On
Versions: 1 2 3 4 5 6 7 8 9 10 11 12 13 14 15 16 17 18 19 20 21 22 23 24 25 26 27 28 29 30 31 32 33 34 35 36 37 38 39 40 41 42 43 44 45 46 47 48 49 50
000
ASUS43 KDTX 041001
RWRMI
MICHIGAN HOURLY REGIONAL WEATHER ROUNDUP
NATIONAL WEATHER SERVICE DETROIT/PONTIAC MI
600 AM EDT TUE AUG 04 2015

NOTE: "FAIR" INDICATES FEW OR NO CLOUDS BELOW 12,000 FEET WITH NO
SIGNIFICANT WEATHER AND/OR OBSTRUCTION TO VISIBILITY.

MIZ047>049-052>055-059>063-066>070-074>076-081>083-041100-
SOUTHEAST LOWER MICHIGAN

CITY           SKY/WX    TMP DP  RH WIND       PRES   REMARKS
ADRIAN         CLEAR     56  53  90 CALM      29.92S
ALMA           CLEAR     55  54  95 CALM      29.89R
ANN ARBOR      CLEAR     53  51  93 CALM      29.90S
BAD AXE        CLEAR     52  51  97 CALM      29.88R
CARO           MOCLDY    54  54  99 CALM      29.87S
DETROIT CITY   CLEAR     62  52  69 CALM      29.89S
DETROIT        PTCLDY    61  52  72 W3        29.90R
FLINT          PTCLDY    61  54  77 SW5       29.89R
GROSSE ILE     CLEAR     61  55  82 W3        29.89R
HILLSDALE      CLEAR     59  53  80 CALM      29.92S
HOWELL         CLOUDY    59  54  82 SW3       29.89S

CITY           SKY/WX    TMP DP  RH WIND       PRES   REMARKS
JACKSON        CLEAR     57  52  83 CALM      29.91R
LAMBERTVILLE   CLEAR     59  53  79 CALM      29.91S
LANSING        PTCLDY    60  53  77 W5        29.90R
LAPEER         CLOUDY    55  55  99 CALM      29.89S
MASON          CLOUDY    58  52  80 CALM      29.90S
MONROE         CLEAR     56  54  91 CALM      29.90R
MT. CLEMENS    PTCLDY    62  54  74 W5        29.87R
PONTIAC        PTCLDY    58  53  84 CALM      29.89S
PORT HURON     CLOUDY    57  55  94 CALM      29.88R
TRI CITIES     CLEAR     59  54  83 SW7       29.88S
MIDLAND        FAIR      53  52  97 CALM      29.87S
TROY           CLEAR     62  53  72 SW5       29.90S
SAGINAW HB     CLEAR     55  54  94 S5        29.87S
$$
MIZ043>046-050>051-056>058-064>065-071>073-077>080-041100-
SOUTHWEST LOWER MICHIGAN

CITY           SKY/WX    TMP DP  RH WIND       PRES   REMARKS
BATTLE CREEK     N/A    N/A N/A N/A MISG      29.91S
BENTON HARBOR  CLEAR     56  54  93 CALM      29.91R
BIG RAPIDS     CLEAR     54  52  95 CALM      29.88R
COLDWATER      CLEAR     56  52  86 W3        29.92R
FREMONT        FAIR      56  56 100 CALM      29.88R
HOLLAND        CLEAR     59  56  89 CALM      29.90R
GRAND RAPIDS   PTCLDY    61  56  83 SW3       29.89S
IONIA          FAIR      58  53  83 SW5       29.88S
KALAMAZOO      CLEAR     60  54  80 S3        29.92R
LUDINGTON      PTCLDY    56  54  93 CALM      29.87S
MARSHALL       CLEAR     56  52  86 CALM      29.91R
MOUNT PLEASANT CLEAR     56  54  91 CALM      29.87R
MUSKEGON       PTCLDY    66  57  72 W5        29.89R
SOUTH HAVEN    CLEAR     58  56  95 CALM      29.91R
$$
MIZ016>042-041100-
NORTHERN LOWER MICHIGAN

CITY           SKY/WX    TMP DP  RH WIND       PRES   REMARKS
ALPENA         MOCLDY    55  52  89 SW3       29.84S
BEAVER ISLAND  MOCLDY    61  57  88 NW6       29.83R
BELLAIRE       CLOUDY    60  58  94 CALM      29.83S
CADILLAC       CLEAR     49  47  95 CALM      29.86S
CHARLEVOIX     CLOUDY    63  59  87 W9        29.86R
FRANKFORT      MOCLDY    64  59  86 NW5       29.85R
GAYLORD        CLOUDY    57  57 100 SW3       29.84F
GRAYLING         N/A     50  50  99 CALM      29.86S FOG
HARBOR SPRINGS CLOUDY    61  59  92 W7        29.83R
HOUGHTON LAKE  CLEAR     57  54  89 SW3       29.87S
MANISTEE       PTCLDY    54  48  82 CALM      29.87S
OSCODA         CLOUDY    57  55  92 CALM      29.85S
PELLSTON       MOCLDY    57  56  96 SW3       29.82S
ROGERS CITY    MOCLDY    56  55  97 SW3       29.84R
TRAVERSE CITY  CLOUDY    60  56  86 CALM      29.82S
$$
MIZ007>008-015-041100-
EASTERN UPPER MICHIGAN

CITY           SKY/WX    TMP DP  RH WIND       PRES   REMARKS
KINROSS        MOCLDY    54  52  94 CALM      29.81S
MACKINAC ISLAN CLOUDY    58  58 100 CALM      29.81S
NEWBERRY       MOCLDY    54  53  97 W7        29.81S
S. S. MARIE    CLOUDY    57  54  89 CALM      29.80S
MUNISING         N/A     62  56  80 N12       29.83R
$$
MIZ004>006-011>014-085-041100-
CENTRAL UPPER MICHIGAN

CITY           SKY/WX    TMP DP  RH WIND       PRES   REMARKS
ESCANABA       PTCLDY    55  54  94 W6        29.85R
MENOMINEE      CLOUDY    59  54  82 NW3       29.86R
SAWYER-GWINN   CLOUDY    55  53  91 N6        29.85S
$$
MIZ001>003-009>011-084-041100-
WESTERN UPPER MICHIGAN

CITY           SKY/WX    TMP DP  RH WIND       PRES   REMARKS
IRON MOUNTAIN  CLOUDY    56  54  93 NW5       29.86R
HOUGHTON       LGT RAIN  56  54  93 NW6       29.85R
COPPER HARBOR    N/A     58  54  86 NW5       29.84R
IRONWOOD       CLOUDY    55  55 100 W7        29.87S
$$

ABBREVIATIONS USED IN REMARKS
   TC - TEMPERATURE IN CELSIUS
  WCI - WIND CHILL INDEX
   HX - HEAT INDEX
  VSB - VISIBILITY



USA.gov is the U.S. government's official web portal to all federal, state and local government web resources and services.